,,Stat5,,Stat1,,Stat2,,Stat3,,Stat4,,Wind1,,Wind1,
time,status,PA1M_AVG,status,PR1M_SUM,status,RH1M_AVG,status,SR1M_AVG,status,TA1M_AVG,status,W1dAve1m,status,W1sAve1m,
2003-08-31, 00:00:00,VALID,920.107,VALID,0,VALID,96.5733,VALID,-0.0339617,VALID,17.6224,VALID,69,VALID,0.0179116,
2003-08-31, 00:01:00,VALID,920.1,VALID,0,VALID,96.4398,VALID,-0.0339617,VALID,17.6,VALID,36,VALID,0.641518,
2003-08-31, 00:02:00,VALID,920.08,VALID,0,VALID,96.5707,VALID,-0.0339617,VALID,17.6002,VALID,33,VALID,1.03315,
2003-08-31, 00:03:00,VALID,920.069,VALID,0,VALID,96.4245,VALID,-0.0339617,VALID,17.5645,VALID,34,VALID,1.1335,
2003-08-31, 00:04:00,VALID,920.078,VALID,0,VALID,96.3571,VALID,-0.0339617,VALID,17.5451,VALID,53,VALID,1.2529,
2003-08-31, 00:05:00,VALID,920.058,VALID,0,VALID,95.8052,VALID,-0.0339617,VALID,17.5161,VALID,79,VALID,1.19912,
2003-08-31, 00:06:00,VALID,920.056,VALID,0,VALID,95.617,VALID,-0.0509425,VALID,17.5255,VALID,87,VALID,1.20397,
2003-08-31, 00:07:00,VALID,920.044,VALID,0,VALID,95.584,VALID,0,VALID,17.5417,VALID,76,VALID,1.29091,
2003-08-31, 00:08:00,VALID,920.03,VALID,0,VALID,95.4861,VALID,-0.0509425,VALID,17.5578,VALID,75,VALID,1.14933,
2003-08-31, 00:09:00,VALID,920.017,VALID,0,VALID,95.3182,VALID,-0.0169808,VALID,17.5484,VALID,77,VALID,0.958734,
2003-08-31, 00:10:00,VALID,920.024,VALID,0,VALID,95.2178,VALID,0,VALID,17.5802,VALID,76,VALID,0.857718,
2003-08-31, 00:11:00,VALID,920.012,VALID,0,VALID,95.3627,VALID,0,VALID,17.5998,VALID,77,VALID,1.05295,
2003-08-31, 00:12:00,VALID,920.007,VALID,0,VALID,95.1415,VALID,-0.0339617,VALID,17.5938,VALID,81,VALID,1.07607,
2003-08-31, 00:13:00,VALID,919.994,VALID,0,VALID,95.556,VALID,-0.0169808,VALID,17.5938,VALID,53,VALID,0.564503,
2003-08-31, 00:14:00,VALID,919.99,VALID,0,VALID,95.8345,VALID,0,VALID,17.5834,VALID,63,VALID,0.272852,
2003-08-31, 00:15:00,VALID,919.978,VALID,0,VALID,95.7989,VALID,-0.0169808,VALID,17.5449,VALID,93,VALID,0.264955,
2003-08-31, 00:16:00,VALID,919.954,VALID,0,VALID,96.0405,VALID,-0.0339617,VALID,17.5161,VALID,150,VALID,0.618666,
2003-08-31, 00:17:00,VALID,919.942,VALID,0,VALID,96.3419,VALID,0.0169808,VALID,17.5159,VALID,150,VALID,0.741268,
2003-08-31, 00:18:00,VALID,919.916,VALID,0,VALID,96.4423,VALID,-0.0509425,VALID,17.5062,VALID,132,VALID,0.849777,
2003-08-31, 00:19:00,VALID,919.882,VALID,0,VALID,96.319,VALID,0,VALID,17.4935,VALID,109,VALID,0.859776,
2003-08-31, 00:20:00,VALID,919.851,VALID,0,VALID,96.717,VALID,-0.0509425,VALID,17.5101,VALID,79,VALID,0.693201,
2003-08-31, 00:21:00,VALID,919.813,VALID,0,VALID,97.0463,VALID,-0.0509425,VALID,17.5094,VALID,73,VALID,0.546258,
2003-08-31, 00:22:00,VALID,919.799,VALID,0,VALID,97.1887,VALID,0,VALID,17.4935,VALID,73,VALID,0.45692,
2003-08-31, 00:23:00,VALID,919.787,VALID,0,VALID,97.2371,VALID,-0.0169808,VALID,17.461,VALID,73,VALID,0.283053,
2003-08-31, 00:24:00,VALID,919.77,VALID,0,VALID,97.4253,VALID,0,VALID,17.4287,VALID,73,VALID,0.0696023,
2003-08-31, 00:25:00,VALID,919.76,VALID,0,VALID,97.6338,VALID,0,VALID,17.4123,VALID,49,VALID,0.216363,
2003-08-31, 00:26:00,VALID,919.746,VALID,0,VALID,97.7088,VALID,0,VALID,17.3964,VALID,2,VALID,0.468133,
2003-08-31, 00:27:00,VALID,919.737,VALID,0,VALID,97.424,VALID,-0.0169808,VALID,17.3545,VALID,295,VALID,0.383413,
2003-08-31, 00:28:00,VALID,919.736,VALID,0,VALID,97.4151,VALID,0,VALID,17.3545,VALID,338,VALID,0.216992,
2003-08-31, 00:29:00,VALID,919.709,VALID,0,VALID,97.3795,VALID,-0.0339617,VALID,17.3609,VALID,43,VALID,0.719196,
2003-08-31, 00:30:00,VALID,919.702,VALID,0,VALID,97.3846,VALID,0,VALID,17.3641,VALID,39,VALID,0.4375,
2003-08-31, 00:31:00,VALID,919.703,VALID,0,VALID,97.4113,VALID,-0.0339617,VALID,17.351,VALID,39,VALID,0,
2003-08-31, 00:32:00,VALID,919.712,VALID,0,VALID,97.5066,VALID,0,VALID,17.3416,VALID,39,VALID,0.0046875,
2003-08-31, 00:33:00,VALID,919.703,VALID,0,VALID,97.4876,VALID,0,VALID,17.3319,VALID,39,VALID,0.441106,
2003-08-31, 00:34:00,VALID,919.677,VALID,0,VALID,97.5372,VALID,-0.0169808,VALID,17.3321,VALID,51,VALID,1.34122,
2003-08-31, 00:35:00,VALID,919.638,VALID,0,VALID,97.4939,VALID,-0.0339617,VALID,17.3254,VALID,56,VALID,1.57257,
2003-08-31, 00:36:00,VALID,919.649,VALID,0,VALID,97.1493,VALID,-0.0339617,VALID,17.3095,VALID,52,VALID,1.14955,
2003-08-31, 00:37:00,VALID,919.654,VALID,0,VALID,96.9726,VALID,0,VALID,17.3058,VALID,52,VALID,0.547276,
2003-08-31, 00:38:00,VALID,919.63,VALID,0,VALID,96.9192,VALID,-0.0169808,VALID,17.3226,VALID,68,VALID,0.829072,
2003-08-31, 00:39:00,VALID,919.605,VALID,0,VALID,96.8276,VALID,-0.0339617,VALID,17.3097,VALID,81,VALID,1.15169,
2003-08-31, 00:40:00,VALID,919.602,VALID,0,VALID,96.6928,VALID,-0.0169808,VALID,17.303,VALID,88,VALID,0.999178,
2003-08-31, 00:41:00,VALID,919.586,VALID,0,VALID,96.6636,VALID,0,VALID,17.2996,VALID,88,VALID,0.753005,
2003-08-31, 00:42:00,VALID,919.555,VALID,0,VALID,96.6025,VALID,-0.0169808,VALID,17.2998,VALID,92,VALID,0.957031,
2003-08-31, 00:43:00,VALID,919.538,VALID,0,VALID,96.4906,VALID,-0.0169808,VALID,17.3254,VALID,98,VALID,0.981473,
2003-08-31, 00:44:00,VALID,919.513,VALID,0,VALID,96.6165,VALID,0,VALID,17.345,VALID,80,VALID,1.09481,
2003-08-31, 00:45:00,VALID,919.479,VALID,0,VALID,96.5377,VALID,-0.0169808,VALID,17.3484,VALID,94,VALID,1.24816,
2003-08-31, 00:46:00,VALID,919.459,VALID,0,VALID,96.5911,VALID,-0.0339617,VALID,17.3381,VALID,134,VALID,0.918304,
2003-08-31, 00:47:00,VALID,919.452,VALID,0,VALID,96.8975,VALID,0,VALID,17.3512,VALID,147,VALID,1.29567,
2003-08-31, 00:48:00,VALID,919.436,VALID,0,VALID,97.2371,VALID,0,VALID,17.3577,VALID,127,VALID,0.841427,
2003-08-31, 00:49:00,VALID,919.412,VALID,0,VALID,97.2523,VALID,-0.0169808,VALID,17.3351,VALID,100,VALID,0.652549,
2003-08-31, 00:50:00,VALID,919.397,VALID,0,VALID,97.3108,VALID,0,VALID,17.3349,VALID,54,VALID,0.216071,
2003-08-31, 00:51:00,VALID,919.396,VALID,0,VALID,97.3629,VALID,0,VALID,17.3489,VALID,66,VALID,0.0967548,
2003-08-31, 00:52:00,VALID,919.387,VALID,0,VALID,97.2752,VALID,-0.0339617,VALID,17.3159,VALID,113,VALID,0.879498,
2003-08-31, 00:53:00,VALID,919.372,VALID,0,VALID,97.2752,VALID,-0.0339617,VALID,17.3194,VALID,113,VALID,1.13845,
2003-08-31, 00:54:00,VALID,919.351,VALID,0,VALID,97.2193,VALID,-0.0169808,VALID,17.3321,VALID,95,VALID,0.994655,
2003-08-31, 00:55:00,VALID,919.345,VALID,0,VALID,97.3159,VALID,-0.0339617,VALID,17.3484,VALID,88,VALID,0.648438,
2003-08-31, 00:56:00,VALID,919.324,VALID,0,VALID,97.4138,VALID,-0.0169808,VALID,17.3418,VALID,111,VALID,0.638867,
2003-08-31, 00:57:00,VALID,919.32,VALID,0,VALID,97.5321,VALID,-0.0169808,VALID,17.3286,VALID,106,VALID,0.982589,
2003-08-31, 00:58:00,VALID,919.278,VALID,0,VALID,97.6605,VALID,0,VALID,17.3187,VALID,136,VALID,0.740709,
2003-08-31, 00:59:00,VALID,919.279,VALID,0,VALID,97.7826,VALID,-0.0339617,VALID,17.3127,VALID,124,VALID,0.998621,
2003-08-31, 01:00:00,VALID,919.256,VALID,0,VALID,97.9046,VALID,-0.0169808,VALID,17.3159,VALID,127,VALID,1.04732,
2003-08-31, 01:01:00,VALID,919.241,VALID,0,VALID,97.9975,VALID,-0.0339617,VALID,17.3129,VALID,132,VALID,1.03546,
2003-08-31, 01:02:00,VALID,919.241,VALID,0,VALID,97.9644,VALID,-0.0509425,VALID,17.3196,VALID,138,VALID,0.923775,
2003-08-31, 01:03:00,VALID,919.227,VALID,0,VALID,97.9237,VALID,0,VALID,17.3192,VALID,131,VALID,0.98273,
2003-08-31, 01:04:00,VALID,919.214,VALID,0,VALID,97.794,VALID,-0.0509425,VALID,17.3097,VALID,118,VALID,0.814286,
2003-08-31, 01:05:00,VALID,919.216,VALID,0,VALID,97.5473,VALID,0,VALID,17.3026,VALID,113,VALID,0.635216,
2003-08-31, 01:06:00,VALID,919.215,VALID,0,VALID,97.4634,VALID,-0.0509425,VALID,17.3226,VALID,116,VALID,0.580966,
2003-08-31, 01:07:00,VALID,919.197,VALID,0,VALID,97.3655,VALID,-0.101885,VALID,17.3521,VALID,107,VALID,1.02539,
2003-08-31, 01:08:00,VALID,919.167,VALID,0,VALID,97.349,VALID,-0.0339617,VALID,17.3678,VALID,99,VALID,1.02447,
2003-08-31, 01:09:00,VALID,919.159,VALID,0,VALID,97.3299,VALID,-0.0339617,VALID,17.3867,VALID,90,VALID,0.913662,
2003-08-31, 01:10:00,VALID,919.143,VALID,0,VALID,97.3121,VALID,-0.0169808,VALID,17.4001,VALID,107,VALID,0.926562,
2003-08-31, 01:11:00,VALID,919.127,VALID,0,VALID,97.3769,VALID,-0.0849042,VALID,17.3872,VALID,153,VALID,0.585938,
2003-08-31, 01:12:00,VALID,919.109,VALID,0,VALID,97.5143,VALID,-0.0339617,VALID,17.3837,VALID,128,VALID,0.686867,
2003-08-31, 01:13:00,VALID,919.079,VALID,0,VALID,97.5995,VALID,-0.0339617,VALID,17.3805,VALID,119,VALID,0.683594,
2003-08-31, 01:14:00,VALID,919.064,VALID,0,VALID,97.6503,VALID,-0.0169808,VALID,17.3579,VALID,103,VALID,0.835491,
2003-08-31, 01:15:00,VALID,919.031,VALID,0,VALID,97.6592,VALID,-0.0339617,VALID,17.3351,VALID,97,VALID,0.879407,
2003-08-31, 01:16:00,VALID,919.013,VALID,0,VALID,97.6847,VALID,-0.0509425,VALID,17.3424,VALID,103,VALID,0.70228,
2003-08-31, 01:17:00,VALID,918.985,VALID,0,VALID,97.7571,VALID,-0.0169808,VALID,17.3286,VALID,106,VALID,0.77611,
2003-08-31, 01:18:00,VALID,918.988,VALID,0,VALID,97.7673,VALID,-0.0509425,VALID,17.3327,VALID,126,VALID,0.357589,
2003-08-31, 01:19:00,VALID,918.971,VALID,0,VALID,97.8996,VALID,-0.0679233,VALID,17.339,VALID,125,VALID,0.0390625,
2003-08-31, 01:20:00,VALID,918.958,VALID,0,VALID,98.0585,VALID,-0.0169808,VALID,17.3551,VALID,124,VALID,0.0179924,
2003-08-31, 01:21:00,VALID,918.945,VALID,0,VALID,98.1412,VALID,-0.0339617,VALID,17.3616,VALID,124,VALID,0.00325521,
2003-08-31, 01:22:00,VALID,918.956,VALID,0,VALID,98.1615,VALID,-0.0509425,VALID,17.3519,VALID,124,VALID,0,
2003-08-31, 01:23:00,VALID,918.955,VALID,0,VALID,98.1958,VALID,-0.0339617,VALID,17.3323,VALID,124,VALID,0,
2003-08-31, 01:24:00,VALID,918.959,VALID,0,VALID,98.2378,VALID,-0.0169808,VALID,17.3327,VALID,124,VALID,0,
2003-08-31, 01:25:00,VALID,918.947,VALID,0,VALID,98.2378,VALID,-0.0169808,VALID,17.3164,VALID,124,VALID,0.360938,
2003-08-31, 01:26:00,VALID,918.941,VALID,0,VALID,98.1463,VALID,-0.0339617,VALID,17.2832,VALID,224,VALID,0.481841,
2003-08-31, 01:27:00,VALID,918.92,VALID,0,VALID,98.1577,VALID,0.0679233,VALID,17.2729,VALID,276,VALID,0.457721,
2003-08-31, 01:28:00,VALID,918.906,VALID,0,VALID,98.2124,VALID,0.0509425,VALID,17.2634,VALID,276,VALID,0.532143,
2003-08-31, 01:29:00,VALID,918.905,VALID,0,VALID,98.2124,VALID,0.0509425,VALID,17.2376,VALID,274,VALID,0.574119,
2003-08-31, 01:30:00,VALID,918.899,VALID,0,VALID,98.3141,VALID,0.0339617,VALID,17.2275,VALID,276,VALID,0.539696,
2003-08-31, 01:31:00,VALID,918.883,VALID,0,VALID,98.323,VALID,0.0509425,VALID,17.2215,VALID,280,VALID,0.372738,
2003-08-31, 01:32:00,VALID,918.868,VALID,0,VALID,98.3879,VALID,0.0339617,VALID,17.2182,VALID,280,VALID,0.0629464,
2003-08-31, 01:33:00,VALID,918.853,VALID,0,VALID,98.4489,VALID,0.0509425,VALID,17.2118,VALID,280,VALID,0,
2003-08-31, 01:34:00,VALID,918.835,VALID,0,VALID,98.5099,VALID,0.0509425,VALID,17.212,VALID,280,VALID,0,
2003-08-31, 01:35:00,VALID,918.838,VALID,0,VALID,98.5595,VALID,0.101885,VALID,17.1957,VALID,280,VALID,0,
2003-08-31, 01:36:00,VALID,918.814,VALID,0,VALID,98.6396,VALID,0.0509425,VALID,17.1989,VALID,280,VALID,0.0711349,
2003-08-31, 01:37:00,VALID,918.797,VALID,0,VALID,98.7401,VALID,0.0509425,VALID,17.1957,VALID,280,VALID,0.000400641,
2003-08-31, 01:38:00,VALID,918.777,VALID,0,VALID,98.8469,VALID,0.0679233,VALID,17.2157,VALID,55,VALID,0.588281,
2003-08-31, 01:39:00,VALID,918.757,VALID,0,VALID,98.8851,VALID,0.0509425,VALID,17.2079,VALID,64,VALID,0.835268,
2003-08-31, 01:40:00,VALID,918.738,VALID,0,VALID,98.7401,VALID,0.0679233,VALID,17.1922,VALID,64,VALID,0.929265,
2003-08-31, 01:41:00,VALID,918.721,VALID,0,VALID,98.3014,VALID,-0.0169808,VALID,17.1675,VALID,64,VALID,0.991728,
2003-08-31, 01:42:00,VALID,918.717,VALID,0,VALID,97.6541,VALID,-0.0679233,VALID,17.1776,VALID,67,VALID,0.883259,
2003-08-31, 01:43:00,VALID,918.693,VALID,0,VALID,97.1213,VALID,-0.0509425,VALID,17.2325,VALID,75,VALID,0.716747,
2003-08-31, 01:44:00,VALID,918.686,VALID,0,VALID,96.6598,VALID,0,VALID,17.265,VALID,78,VALID,0.798564,
2003-08-31, 01:45:00,VALID,918.667,VALID,0,VALID,96.1219,VALID,-0.0509425,VALID,17.2936,VALID,79,VALID,0.649877,
2003-08-31, 01:46:00,VALID,918.651,VALID,0,VALID,95.8663,VALID,-0.0339617,VALID,17.3484,VALID,79,VALID,0.517411,
2003-08-31, 01:47:00,VALID,918.646,VALID,0,VALID,96.1244,VALID,-0.0169808,VALID,17.3997,VALID,79,VALID,0.194712,
2003-08-31, 01:48:00,VALID,918.636,VALID,0,VALID,96.38,VALID,-0.0169808,VALID,17.4423,VALID,70,VALID,0.199811,
2003-08-31, 01:49:00,VALID,918.617,VALID,0,VALID,96.6419,VALID,0,VALID,17.4418,VALID,46,VALID,0.421875,
2003-08-31, 01:50:00,VALID,918.63,VALID,0,VALID,96.778,VALID,-0.0339617,VALID,17.4192,VALID,30,VALID,0.402961,
2003-08-31, 01:51:01,VALID,918.63,VALID,0,VALID,96.8861,VALID,-0.0339617,VALID,17.3743,VALID,30,VALID,0.182292,
2003-08-31, 01:52:00,VALID,918.627,VALID,0,VALID,97.0717,VALID,0,VALID,17.3413,VALID,30,VALID,0.116211,
2003-08-31, 01:53:00,VALID,918.619,VALID,0,VALID,97.3019,VALID,-0.0679233,VALID,17.3228,VALID,30,VALID,0,
2003-08-31, 01:54:00,VALID,918.615,VALID,0,VALID,97.307,VALID,-0.0679233,VALID,17.3097,VALID,30,VALID,0,
2003-08-31, 01:55:00,VALID,918.616,VALID,0,VALID,97.1201,VALID,-0.0169808,VALID,17.2744,VALID,30,VALID,0,
2003-08-31, 01:56:00,VALID,918.628,VALID,0,VALID,96.9026,VALID,-0.0339617,VALID,17.2286,VALID,30,VALID,0.0787946,
2003-08-31, 01:57:00,VALID,918.634,VALID,0,VALID,96.9637,VALID,-0.0169808,VALID,17.2482,VALID,30,VALID,0.247196,
2003-08-31, 01:58:00,VALID,918.641,VALID,0,VALID,96.9815,VALID,-0.0509425,VALID,17.2779,VALID,30,VALID,0.384924,
2003-08-31, 01:59:00,VALID,918.625,VALID,0,VALID,97.0756,VALID,-0.0339617,VALID,17.2875,VALID,30,VALID,0.296875,
2003-08-31, 02:00:00,VALID,918.616,VALID,0,VALID,97.1544,VALID,-0.0169808,VALID,17.2807,VALID,58,VALID,0.237277,
2003-08-31, 02:01:00,VALID,918.596,VALID,0,VALID,97.2231,VALID,-0.0679233,VALID,17.2744,VALID,134,VALID,0.752604,
2003-08-31, 02:02:00,VALID,918.584,VALID,0,VALID,97.4494,VALID,-0.0169808,VALID,17.274,VALID,139,VALID,0.852273,
2003-08-31, 02:03:00,VALID,918.565,VALID,0,VALID,97.5779,VALID,-0.0339617,VALID,17.2839,VALID,138,VALID,0.544054,
2003-08-31, 02:04:00,VALID,918.54,VALID,0,VALID,97.7241,VALID,-0.0339617,VALID,17.2837,VALID,131,VALID,0.436266,
2003-08-31, 02:05:00,VALID,918.518,VALID,0,VALID,97.7686,VALID,-0.0339617,VALID,17.28,VALID,121,VALID,0.586538,
2003-08-31, 02:06:00,VALID,918.518,VALID,0,VALID,97.6592,VALID,-0.0169808,VALID,17.2811,VALID,120,VALID,0.567383,
2003-08-31, 02:07:00,VALID,918.508,VALID,0,VALID,97.6185,VALID,-0.0169808,VALID,17.2548,VALID,119,VALID,0.537946,
2003-08-31, 02:08:00,VALID,918.493,VALID,0,VALID,97.3388,VALID,0,VALID,17.2353,VALID,119,VALID,0.548775,
2003-08-31, 02:09:00,VALID,918.491,VALID,0,VALID,96.998,VALID,0,VALID,17.2223,VALID,112,VALID,0.673024,
2003-08-31, 02:10:00,VALID,918.484,VALID,0,VALID,96.6661,VALID,-0.0339617,VALID,17.2424,VALID,87,VALID,0.590402,
2003-08-31, 02:11:00,VALID,918.478,VALID,0,VALID,96.4181,VALID,-0.0339617,VALID,17.2641,VALID,87,VALID,0.541466,
2003-08-31, 02:12:00,VALID,918.477,VALID,0,VALID,96.01,VALID,-0.0169808,VALID,17.3097,VALID,87,VALID,0.529772,
2003-08-31, 02:13:00,VALID,918.472,VALID,0,VALID,95.7645,VALID,-0.0169808,VALID,17.3517,VALID,87,VALID,0.418174,
2003-08-31, 02:14:00,VALID,918.466,VALID,0,VALID,95.9235,VALID,-0.0169808,VALID,17.3902,VALID,87,VALID,0.219196,
2003-08-31, 02:15:00,VALID,918.457,VALID,0,VALID,95.8675,VALID,-0.0679233,VALID,17.4134,VALID,87,VALID,0.365585,
2003-08-31, 02:16:00,VALID,918.449,VALID,0,VALID,95.8866,VALID,-0.0169808,VALID,17.4001,VALID,87,VALID,0.330019,
2003-08-31, 02:17:00,VALID,918.449,VALID,0,VALID,96.0507,VALID,-0.0339617,VALID,17.39,VALID,87,VALID,0.321181,
2003-08-31, 02:18:00,VALID,918.437,VALID,0,VALID,96.1804,VALID,-0.0169808,VALID,17.3971,VALID,87,VALID,0.288446,
2003-08-31, 02:19:01,VALID,918.445,VALID,0,VALID,96.3291,VALID,-0.0339617,VALID,17.3842,VALID,87,VALID,0.0687099,
2003-08-31, 02:20:01,VALID,918.428,VALID,0,VALID,96.6305,VALID,-0.0509425,VALID,17.3713,VALID,87,VALID,0.000390625,
2003-08-31, 02:21:00,VALID,918.424,VALID,0,VALID,96.8683,VALID,-0.0339617,VALID,17.3708,VALID,87,VALID,0.300223,
2003-08-31, 02:22:00,VALID,918.397,VALID,0,VALID,97.0845,VALID,-0.0509425,VALID,17.3777,VALID,92,VALID,0.430532,
2003-08-31, 02:23:00,VALID,918.373,VALID,0,VALID,97.2879,VALID,0,VALID,17.3745,VALID,118,VALID,0.512638,
2003-08-31, 02:24:00,VALID,918.347,VALID,0,VALID,97.457,VALID,-0.0339617,VALID,17.3609,VALID,145,VALID,0.644643,
2003-08-31, 02:25:00,VALID,918.343,VALID,0,VALID,97.5448,VALID,-0.0169808,VALID,17.368,VALID,153,VALID,0.421074,
2003-08-31, 02:26:00,VALID,918.324,VALID,0,VALID,97.4253,VALID,0,VALID,17.3448,VALID,153,VALID,0.379645,
2003-08-31, 02:27:00,VALID,918.349,VALID,0,VALID,97.4647,VALID,0,VALID,17.3316,VALID,153,VALID,0.34375,
2003-08-31, 02:28:00,VALID,918.333,VALID,0,VALID,97.5079,VALID,0,VALID,17.3512,VALID,153,VALID,0.290179,
2003-08-31, 02:29:00,VALID,918.343,VALID,0,VALID,97.4469,VALID,0,VALID,17.3349,VALID,153,VALID,0.229167,
2003-08-31, 02:30:00,VALID,918.356,VALID,0,VALID,97.0641,VALID,0.0169808,VALID,17.3093,VALID,153,VALID,0.149858,
2003-08-31, 02:31:00,VALID,918.344,VALID,0,VALID,96.8276,VALID,0,VALID,17.3123,VALID,153,VALID,0.0479601,
2003-08-31, 02:32:00,VALID,918.338,VALID,0,VALID,96.8848,VALID,0,VALID,17.3319,VALID,153,VALID,0.0641447,
2003-08-31, 02:33:00,VALID,918.333,VALID,0,VALID,96.9166,VALID,0,VALID,17.371,VALID,153,VALID,0.046875,
2003-08-31, 02:34:00,VALID,918.326,VALID,0,VALID,97.0908,VALID,-0.0169808,VALID,17.3934,VALID,153,VALID,0,
2003-08-31, 02:35:00,VALID,918.3,VALID,0,VALID,97.2701,VALID,0,VALID,17.4091,VALID,153,VALID,0.00111607,
2003-08-31, 02:36:00,VALID,918.288,VALID,0,VALID,97.396,VALID,0,VALID,17.4227,VALID,153,VALID,0,
2003-08-31, 02:37:00,VALID,918.281,VALID,0,VALID,97.4609,VALID,0,VALID,17.419,VALID,153,VALID,0,
2003-08-31, 02:38:00,VALID,918.258,VALID,0,VALID,97.5702,VALID,-0.0169808,VALID,17.4197,VALID,153,VALID,0,
2003-08-31, 02:39:00,VALID,918.243,VALID,0,VALID,97.63,VALID,0,VALID,17.3964,VALID,146,VALID,0,
2003-08-31, 02:40:00,VALID,918.228,VALID,0,VALID,97.7699,VALID,0,VALID,17.4001,VALID,50,VALID,0.318412,
2003-08-31, 02:41:00,VALID,918.202,VALID,0,VALID,97.8716,VALID,0,VALID,17.3706,VALID,50,VALID,0.354441,
2003-08-31, 02:42:00,VALID,918.201,VALID,0,VALID,97.8601,VALID,0,VALID,17.3452,VALID,50,VALID,0.413616,
2003-08-31, 02:43:00,VALID,918.187,VALID,0,VALID,97.8907,VALID,0,VALID,17.3063,VALID,50,VALID,0.228165,
2003-08-31, 02:44:00,VALID,918.176,VALID,0,VALID,97.9682,VALID,0,VALID,17.2774,VALID,50,VALID,0.0411932,
2003-08-31, 02:45:00,VALID,918.177,VALID,0,VALID,98.0776,VALID,0,VALID,17.2576,VALID,50,VALID,0,
2003-08-31, 02:46:00,VALID,918.157,VALID,0,VALID,98.2302,VALID,-0.0169808,VALID,17.2542,VALID,50,VALID,0,
2003-08-31, 02:47:00,VALID,918.141,VALID,0,VALID,98.2912,VALID,0,VALID,17.2516,VALID,50,VALID,0,
2003-08-31, 02:48:00,VALID,918.135,VALID,0,VALID,98.3027,VALID,0,VALID,17.2518,VALID,50,VALID,0,
2003-08-31, 02:49:00,VALID,918.104,VALID,0,VALID,98.2493,VALID,0,VALID,17.2454,VALID,50,VALID,0,
2003-08-31, 02:50:01,VALID,918.089,VALID,0,VALID,98.276,VALID,-0.0169808,VALID,17.229,VALID,50,VALID,0,
2003-08-31, 02:51:00,VALID,918.087,VALID,0,VALID,98.276,VALID,-0.0169808,VALID,17.2385,VALID,50,VALID,0,
2003-08-31, 02:52:00,VALID,918.079,VALID,0,VALID,98.3802,VALID,0,VALID,17.2486,VALID,50,VALID,0,
2003-08-31, 02:53:00,VALID,918.065,VALID,0,VALID,98.4909,VALID,0,VALID,17.2542,VALID,50,VALID,0,
2003-08-31, 02:54:00,VALID,918.06,VALID,0,VALID,98.543,VALID,0,VALID,17.2673,VALID,50,VALID,0,
2003-08-31, 02:55:01,VALID,918.058,VALID,0,VALID,98.571,VALID,0,VALID,17.2482,VALID,50,VALID,0.078125,
2003-08-31, 02:56:00,VALID,918.046,VALID,0,VALID,98.6244,VALID,0,VALID,17.2352,VALID,50,VALID,0.154241,
2003-08-31, 02:57:00,VALID,918.041,VALID,0,VALID,98.6231,VALID,0,VALID,17.2189,VALID,50,VALID,0.000400641,
2003-08-31, 02:58:00,VALID,918.046,VALID,0,VALID,98.4896,VALID,-0.0169808,VALID,17.1799,VALID,50,VALID,0.000236742,
2003-08-31, 02:59:00,VALID,918.03,VALID,0,VALID,98.4921,VALID,0,VALID,17.1576,VALID,50,VALID,0.0917969,
2003-08-31, 03:00:01,VALID,918.019,VALID,0,VALID,98.4883,VALID,0,VALID,17.1511,VALID,50,VALID,0.233553,
2003-08-31, 03:01:01,VALID,918,VALID,0,VALID,98.5595,VALID,0,VALID,17.1576,VALID,50,VALID,0.264623,
2003-08-31, 03:02:01,VALID,917.995,VALID,0,VALID,98.646,VALID,-0.0169808,VALID,17.1769,VALID,50,VALID,0.146484,
2003-08-31, 03:03:01,VALID,917.988,VALID,0,VALID,98.6396,VALID,0,VALID,17.1806,VALID,50,VALID,0,
2003-08-31, 03:04:00,VALID,917.984,VALID,0,VALID,98.6587,VALID,0,VALID,17.1576,VALID,50,VALID,0.109375,
2003-08-31, 03:05:01,VALID,917.982,VALID,0,VALID,98.7312,VALID,-0.0169808,VALID,17.1645,VALID,100,VALID,0.527803,
2003-08-31, 03:06:01,VALID,918.003,VALID,0,VALID,98.8049,VALID,0,VALID,17.1479,VALID,139,VALID,0.687946,
2003-08-31, 03:07:00,VALID,918.021,VALID,0,VALID,98.8736,VALID,0,VALID,17.1481,VALID,153,VALID,0.611579,
2003-08-31, 03:08:01,VALID,918.02,VALID,0,VALID,98.9753,VALID,0.0169808,VALID,17.1548,VALID,155,VALID,0.701858,
2003-08-31, 03:09:01,VALID,918.019,VALID,0,VALID,99.0529,VALID,0.0169808,VALID,17.1675,VALID,142,VALID,0.627262,
2003-08-31, 03:10:01,VALID,918.02,VALID,0,VALID,99.105,VALID,0,VALID,17.1546,VALID,149,VALID,0.710938,
2003-08-31, 03:11:00,VALID,918.028,VALID,0,VALID,99.1203,VALID,-0.0169808,VALID,17.1582,VALID,149,VALID,0.617188,
2003-08-31, 03:12:01,VALID,918.041,VALID,0,VALID,99.1368,VALID,0,VALID,17.1382,VALID,149,VALID,0.656013,
2003-08-31, 03:13:01,VALID,918.048,VALID,0,VALID,99.1623,VALID,0.0169808,VALID,17.1384,VALID,149,VALID,0.412543,
2003-08-31, 03:14:01,VALID,918.045,VALID,0,VALID,99.1839,VALID,0,VALID,17.1251,VALID,147,VALID,0.682155,
2003-08-31, 03:15:00,VALID,918.05,VALID,0,VALID,99.1737,VALID,0,VALID,17.1255,VALID,158,VALID,0.746194,
2003-08-31, 03:16:01,VALID,918.041,VALID,0,VALID,99.1419,VALID,0.0169808,VALID,17.1154,VALID,147,VALID,0.739258,
2003-08-31, 03:17:01,VALID,918.038,VALID,0,VALID,99.1076,VALID,-0.0169808,VALID,17.119,VALID,149,VALID,0.650223,
2003-08-31, 03:18:01,VALID,918.025,VALID,0,VALID,99.0758,VALID,0.0339617,VALID,17.1419,VALID,150,VALID,0.671664,
2003-08-31, 03:19:01,VALID,918.02,VALID,0,VALID,98.9919,VALID,0,VALID,17.1513,VALID,150,VALID,0.37546,
2003-08-31, 03:20:01,VALID,918.006,VALID,0,VALID,98.9499,VALID,0,VALID,17.1681,VALID,148,VALID,0.316518,
2003-08-31, 03:21:01,VALID,917.996,VALID,0,VALID,98.9219,VALID,0.0169808,VALID,17.1709,VALID,143,VALID,0.309495,
2003-08-31, 03:22:01,VALID,917.975,VALID,0,VALID,98.9181,VALID,0,VALID,17.1901,VALID,143,VALID,0.148226,
2003-08-31, 03:23:01,VALID,917.966,VALID,0,VALID,98.8711,VALID,0,VALID,17.1903,VALID,143,VALID,0,
2003-08-31, 03:24:01,VALID,917.959,VALID,0,VALID,98.763,VALID,0,VALID,17.1741,VALID,143,VALID,0,
2003-08-31, 03:25:01,VALID,917.95,VALID,0,VALID,98.7032,VALID,0.0339617,VALID,17.1647,VALID,143,VALID,0,
2003-08-31, 03:26:01,VALID,917.943,VALID,0,VALID,98.7566,VALID,-0.0169808,VALID,17.1582,VALID,143,VALID,0,
2003-08-31, 03:27:01,VALID,917.929,VALID,0,VALID,98.8545,VALID,0.0169808,VALID,17.1677,VALID,143,VALID,0,
2003-08-31, 03:28:01,VALID,917.921,VALID,0,VALID,98.9194,VALID,0,VALID,17.1843,VALID,143,VALID,0,
2003-08-31, 03:29:01,VALID,917.903,VALID,0,VALID,98.9308,VALID,-0.0169808,VALID,17.1707,VALID,143,VALID,0.145633,
2003-08-31, 03:30:01,VALID,917.899,VALID,0,VALID,98.9436,VALID,0,VALID,17.1449,VALID,143,VALID,0.167383,
2003-08-31, 03:31:01,VALID,917.891,VALID,0,VALID,98.9677,VALID,-0.0169808,VALID,17.1386,VALID,143,VALID,0.284821,
2003-08-31, 03:32:01,VALID,917.879,VALID,0,VALID,99.0059,VALID,-0.0169808,VALID,17.1227,VALID,143,VALID,0.21685,
2003-08-31, 03:33:01,VALID,917.877,VALID,0,VALID,99.0847,VALID,0.0169808,VALID,17.1221,VALID,143,VALID,0.16705,
2003-08-31, 03:34:00,VALID,917.862,VALID,0,VALID,99.1267,VALID,0,VALID,17.1225,VALID,143,VALID,0.185937,
2003-08-31, 03:35:00,VALID,917.854,VALID,0,VALID,99.0605,VALID,0,VALID,17.0965,VALID,143,VALID,0.373397,
2003-08-31, 03:36:00,VALID,917.848,VALID,0,VALID,99.0211,VALID,0,VALID,17.0803,VALID,139,VALID,0.441934,
2003-08-31, 03:37:00,VALID,917.842,VALID,0,VALID,99.0389,VALID,0,VALID,17.0513,VALID,136,VALID,0.333265,
2003-08-31, 03:38:00,VALID,917.827,VALID,0,VALID,99.0059,VALID,0,VALID,17.0483,VALID,136,VALID,0.26808,